[[{"header":{"parameterUnit":"m.s-1","parameterCategory":1,"la1":30.2992,"la2":30.254,"lo1":-89.0895,"lo2":-89.0443,"dy":0.0025,"dx":0.0025,"nx":19,"ny":19,"refTime":"2026-03-10T03:00:00:Z","depth":0,"parameterNumber":2,"parameterNumberName":"U-component_of_WINDS"},"data":[0,0,0,-1.7803,-1.7803,-1.7824,-1.7824,-1.7852,-1.7852,0,0,0,0,0,0,0,0,0,0,0,-1.7797,-1.7797,-1.7803,-1.7803,-1.7824,-1.7824,-1.7852,-1.7852,0,0,0,0,0,0,0,0,0,0,0,-1.7797,-1.7797,-1.7797,-1.7803,-1.7824,-1.7824,-1.7851,-1.7836,0,0,0,0,0,0,0,0,0,0,-1.7815,-1.781,-1.7797,-1.7797,-1.7803,-1.7824,-1.7824,-1.7835,-1.7837,-1.7843,0,-1.7847,0,-1.785,-1.7854,-1.7854,0,0,0,-1.7803,-1.7808,-1.7814,-1.7797,-1.7803,-1.7824,-1.7814,-1.7836,-1.7838,-1.7845,-1.7848,-1.7849,-1.785,-1.7854,-1.7854,-1.7887,-1.7887,0,0,-1.7802,-1.7801,-1.7812,-1.7815,-1.7811,-1.7814,-1.7815,-1.7837,-1.784,-1.7848,-1.7849,-1.7851,-1.7854,-1.7854,-1.7887,-1.7887,0,0,0,-1.7799,-1.78,-1.7805,-1.7814,-1.7817,-1.7814,-1.7816,-1.7839,-1.7841,-1.785,-1.7851,-1.7854,-1.7855,-1.7887,-1.7887,-1.7892,0,0,0,-1.7798,-1.7798,-1.7804,-1.7804,-1.7817,-1.7829,-1.7818,-1.7839,-1.7842,-1.7851,-1.7854,-1.7855,-1.7887,-1.7887,-1.7892,-1.7895,0,0,0,-1.7795,-1.7798,-1.7801,-1.7803,-1.7812,-1.7828,-1.7831,-1.784,-1.7843,-1.7854,-1.7855,-1.7887,-1.7887,-1.7891,-1.7894,-1.7903,0,0,0,-1.7792,-1.7806,-1.7801,-1.7817,-1.7812,-1.7832,-1.7831,-1.7846,-1.7856,-1.7854,-1.7887,-1.7887,-1.7891,-1.7894,-1.7902,-1.7909,-1.7912,0,0,-1.7809,-1.7808,-1.7817,-1.7813,-1.7833,-1.7828,-1.7849,-1.786,-1.7863,-1.7879,-1.788,-1.7892,-1.7894,-1.7903,-1.793,-1.7932,0,0,0,-1.7822,-1.7829,-1.7834,-1.7843,-1.7852,-1.7859,-1.7867,-1.7871,-1.7885,-1.7871,-1.7898,-1.7899,-1.7904,-1.7907,-1.7909,-1.7913,-1.7889,-1.7889,-1.7889,-1.7843,-1.7845,-1.7861,-1.7865,-1.7875,-1.7882,-1.789,-1.7897,-1.7897,-1.7904,-1.7908,-1.7924,-1.7928,-1.7929,-1.7933,-1.7913,-1.7913,-1.7913,-1.7913,-1.7866,-1.7876,-1.7876,-1.789,-1.7893,-1.7906,-1.7914,-1.7914,-1.7926,-1.7921,-1.7926,-1.7918,-1.7932,-1.7935,-1.7913,-1.7913,-1.7913,-1.7913,-1.7913,-1.788,-1.7884,-1.7889,-1.7902,-1.7912,-1.7917,-1.7929,-1.7932,-1.7934,-1.7939,-1.7943,-1.7943,-1.7942,-1.7941,-1.7941,-1.7941,-1.7941,-1.7941,-1.7941,-1.7891,-1.7896,-1.7905,-1.7915,-1.7921,-1.7929,-1.7938,-1.7944,-1.7952,-1.7953,-1.7953,-1.7952,-1.7933,-1.7927,-1.7942,-1.7942,-1.7942,-1.7941,-1.7941,-1.7913,-1.7908,-1.7922,-1.7928,-1.794,-1.795,-1.7953,-1.7965,-1.7971,-1.7977,-1.7975,-1.7961,-1.796,-1.7959,-1.7954,-1.7975,-1.7975,-1.7975,-1.7975,-1.7923,-1.7923,-1.7938,-1.7947,-1.7957,-1.7961,-1.7977,-1.7984,-1.799,-1.7994,-1.7992,-1.7986,-1.7985,-1.7985,-1.7983,-1.7979,-1.8005,-1.8005,-1.8005,-1.7936,-1.7937,-1.795,-1.7955,-1.7965,-1.7973,-1.7988,-1.7999,-1.8006,-1.8006,-1.7997,-1.7996,-1.7987,-1.7984,-1.7983,-1.798,-1.7972,0,0]},{"header":{"parameterUnit":"m.s-1","parameterCategory":1,"la1":30.2992,"la2":30.254,"lo1":-89.0895,"lo2":-89.0443,"dy":0.0025,"dx":0.0025,"nx":19,"ny":19,"refTime":"2026-03-10T03:00:00:Z","depth":0,"parameterNumber":3,"parameterNumberName":"V-component_of_WINDS"},"data":[0,0,0,3.3596,3.3599,3.371,3.371,3.3851,3.3852,0,0,0,0,0,0,0,0,0,0,0,3.3559,3.356,3.3596,3.3599,3.371,3.371,3.3851,3.3852,0,0,0,0,0,0,0,0,0,0,0,3.3559,3.3559,3.356,3.3599,3.3709,3.371,3.3851,3.3768,0,0,0,0,0,0,0,0,0,0,3.3661,3.3621,3.3559,3.356,3.36,3.3709,3.371,3.3764,3.3773,3.3799,0,3.3818,0,3.3837,3.3861,3.3862,0,0,0,3.3603,3.3613,3.3647,3.3561,3.3601,3.3709,3.3661,3.3769,3.378,3.3811,3.382,3.3825,3.3839,3.3862,3.3863,3.3993,3.3993,0,0,3.3597,3.3577,3.364,3.3653,3.3632,3.3657,3.3664,3.3776,3.3785,3.382,3.3829,3.3842,3.3863,3.3864,3.3992,3.3993,0,0,0,3.3576,3.3573,3.3604,3.3647,3.3667,3.366,3.3668,3.378,3.3792,3.383,3.3843,3.3864,3.3866,3.3992,3.3993,3.3994,0,0,0,3.3573,3.3561,3.3601,3.359,3.3665,3.3724,3.367,3.3784,3.3797,3.3843,3.3864,3.3867,3.3992,3.3992,3.3993,3.3998,0,0,0,3.3553,3.3558,3.3573,3.3589,3.3635,3.3723,3.3741,3.3787,3.3805,3.3862,3.3867,3.3991,3.3992,3.3992,3.3996,3.4028,0,0,0,3.3527,3.3572,3.3572,3.3628,3.3634,3.3721,3.374,3.3807,3.3856,3.3865,3.3992,3.3993,3.3991,3.3995,3.4026,3.4051,3.4058,0,0,3.3572,3.3576,3.3611,3.3614,3.3696,3.3706,3.379,3.3854,3.3879,3.3955,3.3958,3.3993,3.3996,3.4027,3.4107,3.4113,0,0,0,3.3618,3.3643,3.3669,3.3713,3.3763,3.3807,3.386,3.3885,3.395,3.3912,3.4013,3.4015,3.4035,3.4047,3.4052,3.4072,3.3997,3.3997,3.3997,3.3654,3.3682,3.3742,3.3785,3.3829,3.3885,3.3924,3.3968,3.3984,3.4008,3.403,3.4075,3.4089,3.4093,3.4112,3.4045,3.4045,3.4045,3.4045,3.3724,3.3764,3.3786,3.3851,3.3883,3.394,3.3998,3.4008,3.4069,3.4059,3.4078,3.4065,3.4098,3.4117,3.4045,3.4045,3.4045,3.4045,3.4045,3.3751,3.3776,3.3804,3.3874,3.3925,3.3969,3.4026,3.4053,3.4079,3.4097,3.4127,3.4127,3.4132,3.4109,3.4109,3.411,3.411,3.411,3.411,3.3768,3.38,3.3843,3.3901,3.3936,3.3984,3.4044,3.408,3.4127,3.4143,3.4143,3.4159,3.4095,3.4079,3.4112,3.4112,3.4112,3.4111,3.4111,3.383,3.3821,3.3887,3.3922,3.3995,3.4046,3.408,3.4152,3.4185,3.4214,3.4227,3.4174,3.4181,3.4178,3.4165,3.4218,3.4218,3.4218,3.4218,3.3854,3.386,3.3936,3.3989,3.4045,3.4084,3.4164,3.4212,3.4262,3.4286,3.4282,3.4267,3.4262,3.4272,3.4266,3.4255,3.433,3.433,3.4331,3.3896,3.3909,3.3968,3.4014,3.4074,3.4126,3.4203,3.4268,3.4322,3.4336,3.4306,3.4301,3.4278,3.4268,3.428,3.427,3.425,0,0]}]]